Regional Weather Roundup
Issued by NWS

Home | Current Version | Previous Version | Text Only | Print | Product List | Glossary On
Versions: 1 2 3 4 5 6 7 8 9 10 11 12 13 14 15 16 17 18 19 20 21 22 23 24 25 26 27 28 29 30 31 32 33 34 35 36 37 38 39 40 41 42 43 44 45 46 47 48 49 50
000
ASUS46 KPQR 300610
RWROR

OREGON REGIONAL WEATHER ROUNDUP
NATIONAL WEATHER SERVICE PORTLAND OR
1100 PM PDT FRI AUG 29 2014

NOTE: "FAIR" INDICATES FEW OR NO CLOUDS BELOW 12,000 FEET WITH
NO SIGNIFICANT WEATHER AND/OR OBSTRUCTIONS TO VISIBILITY.

ORZ001>013-300700-
NORTHWEST OREGON


CITY           SKY/WX    TMP DP  RH WIND       PRES   REMARKS
ASTORIA        CLOUDY    59  57  93 CALM      29.97F
6HR MIN TEMP:  59; 6HR MAX TEMP:  67;

NEWPORT        FOG       59  59 100 CALM      30.03F VSB 1/2
PORTLAND       PTCLDY    67  55  65 N3        29.96F
6HR MIN TEMP:  67; 6HR MAX TEMP:  77;

VANCOUVER WA   PTCLDY    67  53  61 VRB3      29.95F
6HR MIN TEMP:  67; 6HR MAX TEMP:  76;

SCAPPOOSE      PTCLDY    63  57  81 N3        29.95F
6HR MIN TEMP:  63; 6HR MAX TEMP:  75;

HILLSBORO      PTCLDY    62  55  77 NW3       29.95F
6HR MIN TEMP:  62; 6HR MAX TEMP:  77;

AURORA         MOCLDY    68  55  63 NE3       29.96F
6HR MIN TEMP:  65; 6HR MAX TEMP:  76;

MCMINNVILLE    MOCLDY    61  55  81 SW7       29.97S
6HR MIN TEMP:  61; 6HR MAX TEMP:  78;

SALEM          MOCLDY    67  54  63 W6        29.96R
6HR MIN TEMP:  67; 6HR MAX TEMP:  78;

CORVALLIS      MOCLDY    63  55  77 W10       29.99S
EUGENE         PTCLDY    61  47  59 CALM      29.99S
6HR MIN TEMP:  61; 6HR MAX TEMP:  80;

$$

ORZ021-028-300700-
SOUTHWEST OREGON


CITY           SKY/WX    TMP DP  RH WIND       PRES   REMARKS
NORTH BEND     CLOUDY    61  61 100 W3        30.03R
6HR MIN TEMP:  61; 6HR MAX TEMP:  70;

BROOKINGS      MOCLDY    58  57  96 CALM      30.02S
ROSEBURG       MOCLDY    70  53  54 N6        29.98S
6HR MIN TEMP:  70; 6HR MAX TEMP:  82;

SEXTON SUMMIT  CLEAR     55  47  74 N8        30.06R
6HR MIN TEMP:  55; 6HR MAX TEMP:  73;

MEDFORD        PTCLDY    72  51  47 N3        29.97R
6HR MIN TEMP:  72; 6HR MAX TEMP:  91;

$$

ORZ009-041-300700-
COLUMBIA GORGE


CITY           SKY/WX    TMP DP  RH WIND       PRES   REMARKS
TROUTDALE      PTCLDY    68  55  63 CALM      29.94F
6HR MIN TEMP:  67; 6HR MAX TEMP:  76;

THE DALLES     MOCLDY    71  51  49 NW14      29.92R
6HR MIN TEMP:  71; 6HR MAX TEMP:  77;

$$

ORZ029>031-042>050-061>064-300700-
EASTERN OREGON


CITY           SKY/WX    TMP DP  RH WIND       PRES   REMARKS
REDMOND        PTCLDY    62  44  51 N12       29.99S
6HR MIN TEMP:  61; 6HR MAX TEMP:  78;

BEND           MOCLDY    59  46  63 CALM      30.02S
KLAMATH FALLS  MOCLDY    59  40  49 S3        30.04S
6HR MIN TEMP:  56; 6HR MAX TEMP:  80;

LAKEVIEW       PTCLDY    57  34  41 NW7       30.07R
HERMISTON      CLOUDY    70  49  47 SW12      29.88R
6HR MIN TEMP:  70; 6HR MAX TEMP:  86;

PENDLETON      MOCLDY    67  46  47 W18       29.89R
6HR MIN TEMP:  67; 6HR MAX TEMP:  84;

JOHN DAY       PTCLDY    64  44  47 CALM      29.98S
MEACHAM        CLOUDY    56  46  69 CALM      29.99S
6HR MIN TEMP:  55; 6HR MAX TEMP:  75; 6HR PCP: TRACE;

LA GRANDE      CLOUDY    64  36  34 NW10      29.92F
6HR MIN TEMP:  64; 6HR MAX TEMP:  84;

BAKER CITY     MOCLDY    62  44  51 NW5       29.93S
6HR MIN TEMP:  61; 6HR MAX TEMP:  82; 6HR PCP: TRACE;

BURNS          PTCLDY    63  42  46 W8        29.97R
6HR MIN TEMP:  62; 6HR MAX TEMP:  85;

ROME             N/A     64  33  31 W8        29.90R
6HR MIN TEMP:  64; 6HR MAX TEMP:  90;

ONTARIO        CLOUDY    77  41  27 NW22G32   29.78R
6HR MIN TEMP:  76; 6HR MAX TEMP:  87; 6HR PCP: TRACE;

$$


USA.gov is the U.S. government's official web portal to all federal, state and local government web resources and services.